AirNav   ProFlight Series 2 Aviation Headset
 
 1010 users online  

KNRS Imperial Beach Naval Outlying Field (Ream Field)
Imperial Beach, California, USA

GOING TO IMPERIAL BEACH?


FAA INFORMATION EFFECTIVE 18 JUNE 2020

Location

FAA Identifier: NRS
Lat/Long: 32-33-58.1638N 117-06-48.6837W
32-33.969397N 117-06.811395W
32.5661566,-117.1135233
(estimated)
Elevation: 23.6 ft. / 7.2 m (surveyed)
Variation: 11E (2020)
From city: 1 mile S of IMPERIAL BEACH, CA
Time zone: UTC -7 (UTC -8 during Standard Time)
Zip code: 91932

Airport Operations

Airport use: Private use. Permission required prior to landing
Activation date: 02/1944
Control tower: yes
ARTCC: LOS ANGELES CENTER
FSS: SAN DIEGO FLIGHT SERVICE STATION
FSS-SAN DIEGO SAN-NOTAM NRS
NOTAMs facility: SAN (NOTAM-D service available)
Attendance: 
OPR 1600-0630Z MON-THU (1500-0600Z DT) AND 1600-0200Z++ FRI. CLSD FR 0200Z++ DAY PRIOR TIL 1600Z++ DAY FLW GOVT HOL; EXC PRE-COORD FLT OF OPR NECESSITY. CTC NOLF ATC DSN 577-9414/9415 FOR OPR INQUIRIES.
Segmented circle: no
Lights: AVBL ONLY DURING HRS OF OPERATION.
Beacon: white-white-green (lighted military airport)
Operates sunset to sunrise.

Airport Communications

ATIS: 276.2
WX ASOS: PHONE 619-437-9890
IMPERIAL BEACH GROUND: 285.575 [1600-0630Z MON-THU (1500-0600Z DT) AND 1600-0200Z++ FRI. CLSD FR 0200Z++ DAY PRIOR TIL 1600Z++ DAY FLW GOVT HOL.]
IMPERIAL BEACH TOWER: 120.65 239.25 [1600-0630Z MON-THU (1500-0600Z DT) AND 1600-0200Z++ FRI. CLSD FR 0200Z++ DAY PRIOR TIL 1600Z++ DAY FLW GOVT HOL.]
SOCAL APPROACH: 125.15
SOCAL DEPARTURE: 125.15
EMERG: 243.0
RADAR: 318.8
WX ASOS at SDM (7 nm E): 132.35 (619-661-8297)
WX ASOS at SAN (11 nm N): PHONE 619-296-8934
WX ASOS at MYF (15 nm N): 126.9 (858-576-4337)
WX AWOS-3P at SEE (17 nm NE): 125.45 (619-449-1228)
  • ATCT/GCA/ATIS OPR PUBLISHED HRS EXC PRE-COORD FLT OF OPR NECESSITY.
  • ILS/RADAR - RADAR - SEE TERMINAL FLIP FOR RADAR MINIMA.

Nearby radio navigation aids

VOR radial/distance  VOR name  Freq  Var
PGYr235/7.3POGGI VORTAC116.4514E
TIJr267/8.2TIJUANA VOR/DME116.5014E
MZBr141/14.1MISSION BAY VORTAC117.8015E

Airport Services

Runway Information

Runway 8/26

Dimensions: 2240 x 151 ft. / 683 x 46 m
Surface: concrete
Weight bearing capacity: 
PCN 6 /R/C/W/T
RUNWAY 8  RUNWAY 26
Latitude: 32-34.018072N32-33.921433N
Longitude: 117-06.827898W117-06.406738W
Elevation: 23.5 ft.21.2 ft.
Traffic pattern: leftleft
Touchdown point: yes, no lightsyes, no lights

Runway 9/27

Dimensions: 4997 x 336 ft. / 1523 x 102 m
Surface: PEM
Weight bearing capacity: 
PCN 8 /F/A/W/T
Runway edge lights: high intensity
RUNWAY 9  RUNWAY 27
Latitude: 32-34.076683N32-33.861790N
Longitude: 117-07.368155W117-06.428677W
Elevation: 8.2 ft.19.8 ft.
Traffic pattern: leftleft
Touchdown point: yes, no lightsyes, no lights

Airport Ownership and Management from official FAA records

Ownership: U.S. Navy
Owner: US NAVY
OCEANOGRAPHIC OFC - CODE 3142
WASHINGTON, DC 20373

Additional Remarks

RSTD - OFFL BUS ONLY - PPR F/W AND NON-TENANT ACFT, CTC NASNI ODO DSN 735-8233/8234, C619-545-8233/8234. NORTH ISLAND TENANT ACFT AND COAST GUARD HAVE PRIORITY FOR LCL PAT OPR.
CAUTION: EXTV COPTER TRNG.
MISC: RWY 08-26 AVBL FOR DAY AND NGT COPTER USE ONLY (NGT AND SVFR USE AT PILOTS OWN RISK).
FUEL: J5 (AVAILABLE 1100-2100 MON-THU; 1000-1800 FRI).
FOR CD WHEN ATCT CLSD CTC SOCAL APCH AT 800-448-3724.

Instrument Procedures

NOTE: All procedures below are presented as PDF files. If you need a reader for these files, you should download the free Adobe Reader.

NOT FOR NAVIGATION. Please procure official charts for flight.
FAA instrument procedures published for use from 18 June 2020 at 0901Z to 16 July 2020 at 0900Z.

 
IAPs - Instrument Approach Procedures
COPTER TACAN RWY 27   download (121KB)
NOTE: Special Take-Off Minimums/Departure Procedures apply   download (174KB)

Other nearby airports with instrument procedures:

KSDM - Brown Field Municipal Airport (7 nm E)
KNZY - North Island Naval Air Station (Halsey Field) (9 nm NW)
KSAN - San Diego International Airport (11 nm N)
KMYF - Montgomery-Gibbs Executive Airport (15 nm N)
KSEE - Gillespie Field Airport (17 nm NE)
KNKX - Miramar MCAS (Joe Foss Field) Airport (18 nm N)
 
Loc | Ops | Rwys | IFR | FBO | Links
Com | Nav | Svcs | Stats | Notes
Area around KNRS (Imperial Beach Naval Outlying Field (Ream Field))
 
Road maps at: MapQuest Bing Google
 
Aerial photo
WARNING: Photo may not be current or correct
Aerial photo of KNRS (Imperial Beach Naval Outlying Field (Ream Field))
Photo taken 02-Feb-2016
looking south.

Do you have a better or more recent aerial photo of Imperial Beach Naval Outlying Field (Ream Field) that you would like to share? If so, please send us your photo.

 
Sectional chart

 
Airport distance calculator
Flying to Imperial Beach Naval Outlying Field (Ream Field)? Find the distance to fly.

From to KNRS

Sunrise and sunset
Times for 06-Jul-2020
 Local
(UTC-7)
 Zulu
(UTC)
Morning civil twilight05:2012:20
Sunrise05:4812:48
Sunset19:5802:58
Evening civil twilight20:2703:27

Current date and time
Zulu (UTC)  07-Jul-2020 00:43:52
Local (UTC-7)  06-Jul-2020 17:43:52
 
METAR
KNRS 062356Z 22008KT 7SM SCT010 23/17 A2988 RMK AO2 SLP116 T02330172 10239 20211 58006 $
KSDM 
6nm E 
062353Z 31007KT 10SM CLR 27/17 A2986 RMK AO2 SLP108 6//// T02670167 10294 20244 58006
MMTJ 
8nm E 
062342Z 30011KT 7SM SKC 27/16 A2989 RMK SLP/// 57007 951 HZY
KNZY 
10nm NW 
062352Z 20007KT 8SM FEW010 23/18 A2986 RMK AO2 SLP110 T02330178 10244 20211 58007
KSAN 
11nm N 
062351Z 22006KT 9SM FEW008 24/17 A2987 RMK AO2 SLP116 T02440172 10256 20217 58007
KMYF 
15nm N 
062353Z 26006KT 9SM CLR 26/17 A2987 RMK AO2 SLP108 T02610172 10294 20256 58007
KSEE 
17nm NE 
062347Z VRB06KT 10SM SKC 29/15 A2986
KNKX 
18nm N 
062355Z 23006KT 10SM CLR 28/16 A2986 RMK AO2 SLP105 T02780156 10322 20272 58007 $
TAF
MMTJ 
8nm E 
061634Z 0618/0724 30010KT 5SM HZ SKC TX29/0622Z TN17/0714Z FM062100 28012KT P6SM SKC FM070100 00000KT P6SM SKC FM071000 00000KT 5SM HZ OVC010 TEMPO 0712/0715 3SM BR BKN006 FM071600 28010KT P6SM SKC
KNZY 
10nm NW 
0623/0723 22009KT 9999 FEW010 QNH2982INS TEMPO 0700/0704 VRB06KT 9000 HZ BKN008 FM070400 VRB06KT 8000 BR BKN007 QNH2985INS TEMPO 0710/0716 4800 BR BKN005 FM071700 22010KT 9999 SCT010 QNH2980INS T17/0713Z T23/0722Z FS30103
KSAN 
11nm N 
062046Z 0620/0724 25009KT P6SM FEW007 FM070200 VRB05KT P6SM FEW010 FM070500 18006KT P6SM OVC008 FM071100 18003KT P6SM OVC006 FM071700 19005KT P6SM SCT010 FM071900 21009KT P6SM SCT010
KNKX 
18nm N 
0621/0721 24009KT 9999 SKC QNH2983INS BECMG 0706/0708 VRB05KT 8000 BR BKN006 QNH2985INS TEMPO 0709/0715 3200 BR BKN003 FM071630 VRB06KT 9999 SCT015 QNH2986INS BECMG 0718/0720 23009KT 9999 FEW015 QNH2986INS T16/0712Z T30/0720Z
NOTAMs
Click for the latest NOTAMs
NOTAMs are issued by the DoD/FAA and will open in a separate window not controlled by AirNav.

 

 
 

Would you like to see your business listed on this page?

 If your business provides an interesting product or service to pilots, flight crews, aircraft, or users of the Imperial Beach Naval Outlying Field (Ream Field), you should consider listing it here.  To start the listing process, click on the button below
 
Add a business
 

Other Pages about Imperial Beach Naval Outlying Field (Ream Field)

Update a link
 
Copyright © AirNav, LLC. All rights reserved. Privacy Policy  Contact